This demonstration page uses our WeatherBlox Daily Observations layout. Learn more.

Left ArrowRight Arrow

Hourly Observations for April 18, 2019

Temp ( °F °C ) Dew Point ( °F °C ) Humidity (%) Winds ( mph kmh ) Pressure ( in mb ) Visibility ( mi km ) Precip ( " mm )
12:52 am 00:52 Cloudy 49 9.4 41 5 74 74 NNW 12 19 29.80 1009 10 16 0.00 0.00
1:02 am 01:02 Cloudy 49 9.4 41 5 74 74 NNW 13 20 29.82 1010 10 16 0.00 0.00
1:52 am 01:52 Cloudy 49 9.4 41 5 74 74 NNW 14 22 29.77 1008 10 16 0.00 0.00
2:52 am 02:52 Cloudy 50 10 40 4.4 68 68 NNW 17 28 29.77 1008 10 16 0.00 0.00
3:40 am 03:40 Cloudy 49 9.4 39 3.9 69 69 NNW 20 31 29.80 1009 10 16 0.00 0.00
3:52 am 03:52 Cloudy 49 9.4 40 4.4 71 71 NW 17 28 29.79 1009 10 16 0.00 0.00
4:52 am 04:52 Cloudy 47 8.3 40 4.4 77 77 N 13 20 29.81 1010 10 16 0.00 0.00
5:41 am 05:41 Cloudy 47 8.3 40 4.4 77 77 NNW 13 20 29.84 1010 10 16 0.00 0.00
5:52 am 05:52 Mostly Cloudy 47 8.3 40 4.4 77 77 NNW 12 19 29.82 1010 10 16 0.00 0.00
6:21 am 06:21 Cloudy 47 8.3 40 4.4 77 77 NNW 18 30 29.83 1010 10 16 0.00 0.00
6:52 am 06:52 Cloudy 47 8.3 41 5 80 80 NNW 15 24 29.82 1010 10 16 0.00 0.00
7:41 am 07:41 Cloudy 47 8.3 41 5 80 80 NNW 13 20 29.86 1011 10 16 0.00 0.00
7:52 am 07:52 Cloudy 47 8.3 41 5 80 80 NW 12 19 29.85 1011 10 16 0.00 0.00
8:52 am 08:52 Cloudy 48 8.9 41 5 77 77 NW 14 22 29.89 1012 10 16 0.00 0.00
9:52 am 09:52 Cloudy 50 10 41 5 71 71 NW 10 17 29.91 1013 10 16 0.00 0.00
10:52 am 10:52 Mostly Cloudy 52 11.1 40 4.4 64 64 NW 17 28 29.91 1013 10 16 0.00 0.00
11:49 am 11:49 Mostly Cloudy 55 13 41 5 59 59 N 13 20 29.91 1013 10 16 0.00 0.00
11:52 am 11:52 Mostly Cloudy 55 12.8 41 5 59 59 N 14 22 29.90 1013 10 16 0.00 0.00
12:52 pm 12:52 Mostly Cloudy 57 13.9 41 5 55 55 NNW 14 22 29.90 1013 10 16 0.00 0.00
1:52 pm 13:52 Partly Cloudy 60 15.6 40 4.4 47 47 N 16 26 29.89 1012 10 16 0.00 0.00
2:52 pm 14:52 Partly Cloudy 59 15 39 3.9 48 48 N 22 35 29.86 1011 10 16 0.00 0.00
3:52 pm 15:52 Partly Cloudy 61 16.1 39 3.9 44 44 N 20 31 29.85 1011 10 16 0.00 0.00
4:52 pm 16:52 Partly Cloudy 58 14.4 39 3.9 50 50 N 23 37 29.85 1011 10 16 0.00 0.00
5:52 pm 17:52 Mostly Cloudy 57 13.9 39 3.9 51 51 N 23 37 29.89 1012 10 16 0.00 0.00
6:52 pm 18:52 Mostly Cloudy 54 12.2 41 5 62 62 NNW 21 33 29.93 1014 10 16 0.00 0.00
7:52 pm 19:52 Mostly Cloudy 53 11.7 38 3.3 57 57 N 20 31 29.96 1015 10 16 0.00 0.00
8:52 pm 20:52 Partly Cloudy 51 10.6 38 3.3 61 61 N 13 20 29.99 1016 10 16 0.00 0.00
9:52 pm 21:52 Partly Cloudy 51 10.6 39 3.9 64 64 N 14 22 30.01 1016 10 16 0.00 0.00
10:52 pm 22:52 Clear 49 9.4 38 3.3 66 66 NNW 12 19 30.00 1016 10 16 0.00 0.00
11:52 pm 23:52 Partly Cloudy 46 7.8 37 2.8 71 71 N 6 9 30.01 1016 10 16 0.00 0.00

Powered by AerisWeather